This is the latest recevied weather packets stored in our database for station/object KD4MBW. If no packets are shown the sender has not sent any weather packets the latest 10 day(s).
| Time | Temp. | Humidity | Pressure | Rain* | Wind** | Luminosity | Snow |
|---|---|---|---|---|---|---|---|
| 1777717658 | 14.44° C | 99% | 1010.4 hPa | 4.83 mm | - | 0 W/m² | - |
| 1777717354 | 14.44° C | 99% | 1010.6 hPa | 10.67 mm | - | 0 W/m² | - |
| 1777717052 | 14.44° C | 99% | 1009.7 hPa | 12.7 mm | - | 0 W/m² | - |
| 1777716750 | 14.44° C | 99% | 1010.3 hPa | 11.94 mm | - | 0 W/m² | - |
| 1777716448 | 14.44° C | 99% | 1009.2 hPa | 13.72 mm | - | 0 W/m² | - |
| 1777716146 | 14.44° C | 99% | 1009.7 hPa | 25.91 mm | - | 0 W/m² | - |
| 1777715844 | 14.44° C | 99% | 1009.8 hPa | 27.69 mm | - | 0 W/m² | - |
| 1777715541 | 14.44° C | 99% | 1009.6 hPa | 21.08 mm | - | 0 W/m² | - |
| 1777715239 | 14.44° C | 99% | 1009.3 hPa | 15.49 mm | - | 0 W/m² | - |
| 1777714937 | 13.89° C | 99% | 1008.6 hPa | 12.7 mm | - | 0 W/m² | - |
| 1777714635 | 13.89° C | 99% | 1008.3 hPa | 14.99 mm | - | 0 W/m² | - |
| 1777714332 | 14.44° C | 99% | 1009 hPa | 7.87 mm | - | 0 W/m² | - |
| 1777714029 | 13.89° C | 99% | 1009.2 hPa | 4.83 mm | - | 0 W/m² | - |
| 1777713727 | 13.89° C | 99% | 1009.3 hPa | 4.83 mm | - | 0 W/m² | - |
| 1777713423 | 13.89° C | 99% | 1009.4 hPa | 6.1 mm | - | 0 W/m² | - |
| 1777713119 | 13.89° C | 99% | 1009.7 hPa | 6.1 mm | - | 0 W/m² | - |
| 1777712817 | 13.89° C | 99% | 1009.7 hPa | 6.1 mm | - | 0 W/m² | - |
| 1777712509 | 13.89° C | 99% | 1009.1 hPa | 4.83 mm | - | 0 W/m² | - |
| 1777712205 | 13.89° C | 99% | 1009 hPa | 3.05 mm | - | 0 W/m² | - |
| 1777711901 | 13.89° C | 99% | 1009.5 hPa | 3.05 mm | - | 0 W/m² | - |
| 1777711598 | 13.89° C | 99% | 1008.7 hPa | 4.83 mm | - | 0 W/m² | - |
| 1777711293 | 13.89° C | 99% | 1008.8 hPa | 4.32 mm | - | 0 W/m² | - |
| 1777710991 | 13.89° C | 99% | 1010.1 hPa | 4.83 mm | - | 0 W/m² | - |
| 1777710688 | 13.89° C | 99% | 1010.8 hPa | 4.83 mm | - | 0 W/m² | - |
| 1777710385 | 13.89° C | 99% | 1010.6 hPa | 7.11 mm | - | 0 W/m² | - |
* Rain latest hour (hover to see other rain measurements)
** Current wind speed in m/s (hover to see current wind gust speed)